Location: Rowland
(34.5359°N, 79.2929°W)
Time: 12:30:46
(UTC+00:00)

deb Delta 126 - Visible Passes

Search period start: 28 March 2023 00:00
Search period end: 07 April 2023 00:00
Orbit: 1378 x 1529 km, 101.7° (Epoch: 27 March)

Date Brightness Start Highest point End Pass type
(mag) Time Alt. Az. Time Alt. Az. Time Alt. Az.
28 Mar ? 07:28:41 10° NE 07:34:44 22° E 07:39:21 14° SE visible
28 Mar ? 09:19:46 10° NNE 09:28:09 69° WNW 09:34:22 19° SSW visible
29 Mar ? 08:21:12 10° NNE 08:29:22 52° ESE 08:34:37 22° SSE visible
29 Mar ? 10:14:37 10° N 10:21:45 32° WNW 10:28:45 10° WSW visible
30 Mar ? 07:24:19 10° NE 07:30:01 20° E 07:34:51 12° SE visible
30 Mar ? 09:15:06 10° NNE 09:23:31 74° WNW 09:29:52 18° SSW visible
31 Mar ? 08:16:38 10° NNE 08:24:40 48° ESE 08:30:06 21° SSE visible
31 Mar ? 10:09:53 10° N 10:17:10 34° WNW 10:24:16 10° WSW visible
01 Apr ? 07:19:59 10° NE 07:25:17 18° E 07:30:20 10° SE visible
01 Apr ? 09:10:27 10° NNE 09:18:52 79° WNW 09:25:21 18° SSW visible
02 Apr ? 08:12:03 10° NNE 08:19:59 45° E 08:25:34 19° SSE visible
02 Apr ? 10:05:09 10° N 10:12:34 36° WNW 10:19:46 10° SW visible
03 Apr ? 07:15:43 10° NE 07:20:32 16° E 07:25:15 10° SE visible
03 Apr ? 09:05:48 10° NNE 09:14:13 83° WNW 09:20:49 17° SSW visible
04 Apr ? 08:07:30 10° NNE 08:15:17 42° E 08:21:03 17° SSE visible
04 Apr ? 10:00:26 10° N 10:07:57 39° WNW 10:15:17 10° SW visible
05 Apr ? 07:11:31 10° ENE 07:15:48 15° E 07:19:59 10° ESE visible
05 Apr ? 09:01:09 10° NNE 09:09:33 88° WNW 09:16:17 16° SSW visible
06 Apr ? 08:02:58 10° NNE 08:10:34 39° E 08:16:31 16° SSE visible
06 Apr ? 09:55:43 10° N 10:03:20 41° WNW 10:10:45 10° SW visible
